Clarksburg, WV

12:38 PM EST on November 19, 2019 (GMT -0500)
Benedum

Weather History for KCKB - May, 2019

Change the Weather History Date:

Sunday, May 5, 2019

  Actual Average Record
Temperature  
Mean Temperature 61 °F 58 °F  
Max Temperature 64 °F 70 °F 91 °F (1938)
Min Temperature 57 °F 47 °F 29 °F (1966)
Degree Days  
Heating Degree Days 4 7  
Month to date heating degree days 4 38  
Since 1 July heating degree days 4310 5100  
Cooling Degree Days 0 1  
Month to date cooling degree days 23 1  
Year to date cooling degree days 48 10  
Growing Degree Days 10 (Base 50)    
Moisture  
Dew Point 56 °F    
Average Humidity 86    
Maximum Humidity 93    
Minimum Humidity 78    
Precipitation  
Precipitation 0.20 in 0.13 in 1.42 in (1996)
Month to date precipitation 0.50 0.58  
Year to date precipitation 14.63 14.76  
Sea Level Pressure  
Sea Level Pressure 29.79 in    
Wind  
Wind Speed 5 mph (North)    
Max Wind Speed 12 mph    
Max Gust Speed 16 mph    
Visibility 8 miles    
Events Rain    
T = Trace of Precipitation, MM = Missing Value Source: NWS Daily Summary

Daily Weather History Graph

Daily Weather History Graph

Search for Another Location

Airport or City:

Astronomy

May. 05, 2019 Rise Set
Actual Time 6:17 AM EDT 8:17 PM EDT
Civil Twilight 5:48 AM EDT 8:47 PM EDT
Nautical Twilight 5:12 AM EDT 9:23 PM EDT
Astronomical Twilight 4:34 AM EDT 10:02 PM EDT
Moon 7:01 AM EDT (5/5) 9:09 PM EDT (5/5)
Length of Visible Light 14h 58m
Length of Day
14h 00m
New Moon, 1% of the Moon is Illuminated
May 5
New Moon
May 11
First Quarter
May 18
Full
May 26
Last Quarter
Jun 3
New

Hourly Weather History & Observations

Time (EDT) Temp. Dew Point Humidity Pressure Visibility Wind Dir Wind Speed Gust Speed Precip Events Conditions
12:21 AM 61.0 °F 57.0 °F 87% 29.81 in 6.0 mi North 6.9 mph - 0.00 in Rain Light Rain
12:53 AM 60.1 °F 57.0 °F 90% 29.77 in 5.0 mi NNE 5.8 mph - 0.00 in Rain Light Rain
1:30 AM 60.1 °F 57.0 °F 90% 29.79 in 5.0 mi North 5.8 mph - 0.01 in Rain Light Rain
1:53 AM 60.1 °F 57.0 °F 90% 29.75 in 5.0 mi North 5.8 mph - 0.01 in Rain Light Rain
2:53 AM 60.1 °F 57.0 °F 90% 29.73 in 5.0 mi NNE 4.6 mph - 0.03 in Rain Light Rain
3:53 AM 60.1 °F 57.0 °F 90% 29.72 in 6.0 mi North 4.6 mph - 0.02 in Rain Light Rain
4:53 AM 60.1 °F 55.9 °F 86% 29.71 in 6.0 mi NNE 5.8 mph - 0.04 in Rain Light Rain
5:43 AM 60.1 °F 55.9 °F 86% 29.73 in 6.0 mi NNE 8.1 mph - 0.04 in Rain Light Rain
5:53 AM 60.1 °F 55.9 °F 86% 29.70 in 6.0 mi NE 8.1 mph - 0.05 in Rain Rain
7:53 AM 60.1 °F 57.0 °F 90% 29.71 in 10.0 mi NNE 8.1 mph - 0.01 in Rain Light Rain
8:53 AM 60.1 °F 57.0 °F 90% 29.73 in 7.0 mi North 6.9 mph - 0.00 in Rain Light Rain
9:53 AM 61.0 °F 57.0 °F 87% 29.73 in 10.0 mi North 8.1 mph - 0.03 in Rain Light Rain
10:53 AM 62.1 °F 57.0 °F 84% 29.74 in 10.0 mi NNW 4.6 mph - 0.00 in   Overcast
11:16 AM 63.0 °F 57.9 °F 84% 29.77 in 10.0 mi NNE 8.1 mph - 0.00 in Rain Light Rain
11:45 AM 64.0 °F 57.9 °F 80% 29.77 in 10.0 mi North 8.1 mph - 0.00 in Rain Light Rain
11:53 AM 63.0 °F 57.9 °F 84% 29.74 in 10.0 mi North 9.2 mph - 0.00 in   Overcast
12:03 PM 63.0 °F 57.9 °F 84% 29.77 in 10.0 mi NNW 8.1 mph - 0.00 in Rain Light Rain
12:11 PM 63.0 °F 57.0 °F 81% 29.77 in 10.0 mi North 8.1 mph - 0.00 in Rain Light Rain
12:53 PM 63.0 °F 57.9 °F 84% 29.75 in 10.0 mi NNW 4.6 mph - 0.00 in   Overcast
1:53 PM 62.1 °F 57.0 °F 84% 29.75 in 10.0 mi North 6.9 mph - N/A   Overcast
2:53 PM 63.0 °F 57.0 °F 81% 29.76 in 10.0 mi North 8.1 mph - 0.00 in   Overcast
3:53 PM 62.1 °F 55.9 °F 80% 29.75 in 10.0 mi NNW 6.9 mph - N/A   Overcast
4:32 PM 62.1 °F 55.9 °F 80% 29.78 in 10.0 mi North 8.1 mph - N/A   Overcast
4:48 PM 62.6 °F 55.4 °F 77% 29.79 in 10.0 mi North 9.2 mph - N/A   Overcast
4:53 PM 62.1 °F 55.0 °F 78% 29.76 in 10.0 mi North 6.9 mph - N/A   Overcast
5:00 PM 62.1 °F 55.0 °F 78% 29.79 in 10.0 mi North 8.1 mph - N/A   Overcast
5:28 PM 61.0 °F 55.9 °F 83% 29.81 in 9.0 mi NW 8.1 mph - 0.00 in Rain Light Rain
5:53 PM 60.1 °F 55.9 °F 86% 29.80 in 10.0 mi NNW 8.1 mph - 0.00 in   Overcast
6:19 PM 61.0 °F 55.0 °F 81% 29.83 in 10.0 mi NNW 8.1 mph - N/A   Overcast
6:53 PM 61.0 °F 55.0 °F 81% 29.81 in 10.0 mi North 6.9 mph - 0.00 in   Overcast
7:01 PM 61.0 °F 55.0 °F 81% 29.84 in 10.0 mi North 5.8 mph - N/A   Overcast
7:33 PM 61.0 °F 55.0 °F 81% 29.84 in 10.0 mi North 3.5 mph - N/A   Overcast
7:53 PM 61.0 °F 55.0 °F 81% 29.83 in 10.0 mi Calm Calm - N/A   Overcast
8:53 PM 60.1 °F 55.0 °F 83% 29.85 in 9.0 mi Calm Calm - N/A   Overcast
9:53 PM 59.0 °F 55.0 °F 87% 29.86 in 7.0 mi Calm Calm - N/A   Mostly Cloudy
10:14 PM 57.0 °F 54.0 °F 89% 29.89 in 1.5 mi Calm Calm - N/A   Mostly Cloudy
10:24 PM 57.0 °F 54.0 °F 89% 29.89 in 3.0 mi Calm Calm - N/A   Mostly Cloudy
10:33 PM 57.9 °F 54.0 °F 87% 29.89 in 2.5 mi Calm Calm - N/A   Mostly Cloudy
10:41 PM 57.9 °F 54.0 °F 87% 29.89 in 6.0 mi Calm Calm - N/A   Mostly Cloudy
10:53 PM 57.0 °F 54.0 °F 89% 29.87 in 4.0 mi Calm Calm - N/A   Mostly Cloudy
11:53 PM 57.9 °F 55.0 °F 90% 29.89 in 5.0 mi South 3.5 mph - N/A   Overcast